User: anonymous   Login
Location: Unspecified
(0.0000°N, 0.0000°E)
Time: 11:56:21
(UTC+00:00)
Language:

Secor 13 - Orbit

View from above orbital plane
View from above orbital plane
View from above satellite
View from above satellite

Ground track
Ground track

The orbit data is extracted from the following two-line orbital elements,

1 03891U 69037B   18197.72078594 -.00000031  00000-0  22078-4 0  9992
2 03891  99.9195 105.9449 0040186 113.2039 301.0849 13.42851295413985
Epoch (UTC): 16 July 2018 17:17:55
Eccentricity: 0.0040186
inclination: 99.9195°
perigee height: 1068 km
apogee height: 1129 km
right ascension of ascending node: 105.9449°
argument of perigee: 113.2039°
revolutions per day: 13.42851295
mean anomaly at epoch: 301.0849°
orbit number at epoch: 41398

The dashed part of the orbit path shows where the satellite is in the earth's shadow,  

DLR